Weather History for KPKD - April, 2014

Change the Weather History Date:

Monday, April 14, 2014

  Actual Average Record
Temperature  
Mean Temperature 22 °F -  
Max Temperature 30 °F 53 °F 78 °F (2003)
Min Temperature 15 °F 30 °F 8 °F (1950)
Degree Days  
Heating Degree Days 44    
Moisture  
Dew Point 7 °F    
Average Humidity 55    
Maximum Humidity 81    
Minimum Humidity 34    
Precipitation  
Precipitation 0.00 in - - ()
Sea Level Pressure  
Sea Level Pressure 30.16 in    
Wind  
Wind Speed 15 mph (NNW)    
Max Wind Speed 22 mph    
Max Gust Speed 31 mph    
Visibility 10 miles    
Events Snow    
Averages and records for this station are not official NWS values.
T = Trace of Precipitation, MM = Missing Value Source: NWS Daily Summary

Daily Weather History Graph

Daily Weather History Graph

Search for Another Location

Airport or City:

Trip Planner

Search our weather history database for the weather conditions in past years. The results will help you decide how hot, cold, wet, or windy it might be!

Date:

Astronomy

Apr. 14, 2014 Rise Set
Actual Time 6:34 AM CDT 8:07 PM CDT
Civil Twilight 6:02 AM CDT 8:39 PM CDT
Nautical Twilight 5:24 AM CDT 9:18 PM CDT
Astronomical Twilight 4:42 AM CDT 10:00 PM CDT
Moon 7:46 PM CDT (4/14) 6:09 AM CDT (4/14)
Length of Visible Light 14h 36m
Length of Day
13h 33m
Full, 100% of the Moon is Illuminated
Apr 14
Full
Apr 15
Full
Apr 22
Last Quarter
Apr 29
New
May 6
First Quarter

Hourly Weather History & Observations

Time (CDT) Temp. Windchill Dew Point Humidity Pressure Visibility Wind Dir Wind Speed Gust Speed Precip Events Conditions
12:53 AM 24.1 °F 9.8 °F 10.9 °F 57% 30.16 in 10.0 mi North 19.6 mph 26.5 mph N/A   Partly Cloudy
1:53 AM 23.0 °F 10.6 °F 10.9 °F 60% 30.16 in 10.0 mi North 13.8 mph - N/A   Partly Cloudy
2:53 AM 21.0 °F 6.2 °F 10.0 °F 63% 30.15 in 10.0 mi North 18.4 mph 25.3 mph N/A   Clear
3:53 AM 19.4 °F 5.5 °F 8.6 °F 63% 30.07 in 10.0 mi North 15.0 mph - N/A   Clear
4:53 AM 19.0 °F 5.6 °F 6.1 °F 57% 30.14 in 10.0 mi NNW 13.8 mph - N/A   Clear
5:53 AM 18.0 °F 6.1 °F 6.1 °F 60% 30.14 in 10.0 mi NNW 10.4 mph - N/A   Clear
6:53 AM 15.8 °F 4.2 °F 6.8 °F 68% 30.09 in 10.0 mi NNW 9.2 mph - N/A   Clear
7:53 AM 19.0 °F 6.8 °F 6.1 °F 57% 30.18 in 10.0 mi NNW 11.5 mph - N/A   Clear
8:53 AM 21.9 °F 8.7 °F 6.1 °F 51% 30.19 in 10.0 mi NNW 15.0 mph - N/A   Clear
9:53 AM 25.0 °F 11.3 °F 1.0 °F 36% 30.19 in 10.0 mi North 18.4 mph 28.8 mph N/A   Clear
10:53 AM 26.1 °F 12.0 °F 1.0 °F 34% 30.18 in 10.0 mi NNW 20.7 mph 31.1 mph N/A   Partly Cloudy
11:53 AM 26.1 °F 12.3 °F 1.0 °F 34% 30.18 in 10.0 mi North 19.6 mph 31.1 mph N/A   Mostly Cloudy
12:53 PM 28.4 °F 15.1 °F 3.2 °F 34% 30.10 in 10.0 mi NNW 20.7 mph 28.8 mph N/A   Mostly Cloudy
1:53 PM 27.0 °F 16.1 °F 5.0 °F 39% 30.17 in 10.0 mi NNW 12.7 mph 25.3 mph N/A   Overcast
2:53 PM 28.0 °F 15.3 °F 6.1 °F 39% 30.17 in 10.0 mi WNW 18.4 mph 28.8 mph N/A   Mostly Cloudy
3:53 PM 28.9 °F 15.4 °F 12.9 °F 51% 30.16 in 10.0 mi NW 21.9 mph 28.8 mph 0.00 in   Mostly Cloudy
4:53 PM 27.0 °F 14.3 °F 3.9 °F 37% 30.16 in 10.0 mi NW 17.3 mph 31.1 mph 0.00 in   Scattered Clouds
5:53 PM 26.1 °F 14.5 °F 5.0 °F 41% 30.16 in 10.0 mi NW 13.8 mph - N/A   Scattered Clouds
6:53 PM 25.0 °F 13.1 °F 6.1 °F 45% 30.17 in 10.0 mi NNW 13.8 mph - N/A   Overcast
7:53 PM 21.0 °F 9.3 °F 3.9 °F 48% 30.18 in 10.0 mi NNW 11.5 mph 21.9 mph N/A   Scattered Clouds
8:53 PM 19.9 °F 6.7 °F 6.1 °F 55% 30.20 in 10.0 mi NNW 13.8 mph - N/A   Partly Cloudy
9:37 PM 19.0 °F 7.5 °F 12.9 °F 77% 30.13 in 3.0 mi NNW 10.4 mph - 0.00 in Snow Light Snow
9:53 PM 18.0 °F 6.1 °F 12.9 °F 81% 30.21 in 9.0 mi NNW 10.4 mph - 0.00 in   Mostly Cloudy
10:08 PM 17.1 °F 6.6 °F 10.9 °F 77% 30.13 in 9.0 mi NNW 8.1 mph - 0.00 in   Partly Cloudy
10:53 PM 16.0 °F 3.6 °F 8.1 °F 71% 30.21 in 10.0 mi NNW 10.4 mph - 0.00 in   Clear
11:10 PM 16.0 °F 4.4 °F 7.0 °F 68% 30.13 in 10.0 mi NW 9.2 mph - N/A   Mostly Cloudy
11:18 PM 17.1 °F 3.6 °F 7.0 °F 65% 30.12 in 10.0 mi NW 12.7 mph - N/A   Overcast
11:53 PM 17.1 °F 5.0 °F 7.0 °F 65% 30.20 in 9.0 mi NW 10.4 mph - 0.00 in Snow Light Snow